PST,Max TemperatureF,Mean TemperatureF,Min TemperatureF,Max Dew PointF,MeanDew PointF,Min DewpointF,Max Humidity, Mean Humidity, Min Humidity, Max Sea Level PressureIn, Mean Sea Level PressureIn, Min Sea Level PressureIn, Max VisibilityMiles, Mean VisibilityMiles, Min VisibilityMiles, Max Wind SpeedMPH, Mean Wind SpeedMPH, Max Gust SpeedMPH,PrecipitationIn, CloudCover, Events, WindDirDegrees
2013-1-1,33,30,28,30,29,27,93,85,80,30.50,30.43,30.36,10,9,4,6,1,,0.00,7,,58
2013-1-2,44,34,23,28,24,19,93,73,46,30.36,30.28,30.21,10,8,2,12,2,17,0.00,0,,150
2013-1-3,42,32,23,30,23,18,86,69,42,30.23,30.17,30.14,10,10,8,18,5,28,0.00,4,,149
2013-1-4,42,38,35,37,35,28,93,86,70,30.37,30.27,30.20,10,8,1,17,10,25,0.00,8,,142
2013-1-5,39,37,35,30,28,27,75,70,65,30.23,30.19,30.17,10,10,7,14,8,21,0.00,7,,146
2013-1-6,44,40,35,39,34,30,93,83,75,30.25,30.17,30.03,10,6,3,14,8,22,0.21,8,,142
2013-1-7,50,47,44,46,43,39,93,89,76,30.21,30.08,29.95,10,8,2,17,10,25,0.53,8,,150
2013-1-8,53,48,42,48,44,41,93,85,71,30.20,30.03,29.86,10,8,3,18,7,28,0.26,8,,149
2013-1-9,51,43,35,43,37,34,93,82,67,29.99,29.86,29.67,10,10,5,21,8,33,0.52,7,,159
2013-1-10,39,36,33,34,33,30,93,87,75,30.12,30.07,29.99,10,7,0,8,3,,0.04,8,,131
2013-1-11,39,32,26,30,27,23,93,82,52,30.33,30.26,30.13,10,7,0,9,1,,0.00,4,,339
2013-1-12,37,30,24,28,25,19,93,83,60,30.44,30.37,30.32,10,9,0,6,0,,0.00,4,,316
2013-1-13,33,26,19,25,22,16,93,83,70,30.51,30.47,30.42,10,10,6,10,2,,0.00,2,,142
2013-1-14,33,30,28,30,27,23,93,85,80,30.58,30.54,30.51,10,5,2,12,7,16,0.01,8,,142
2013-1-15,35,34,33,32,30,30,87,84,81,30.69,30.66,30.58,10,8,2,8,3,,0.00,8,,22
2013-1-16,35,34,32,30,30,28,93,85,81,30.67,30.60,30.52,10,9,2,6,1,,0.00,8,,331
2013-1-17,35,32,30,32,29,27,93,87,81,30.52,30.42,30.32,10,7,0,8,3,,0.00,8,,120
2013-1-18,44,36,28,34,29,27,93,83,66,30.33,30.30,30.26,10,8,1,12,5,16,0.00,1,,137
2013-1-19,39,34,28,32,28,25,93,84,70,30.37,30.33,30.29,10,9,0,10,3,,0.00,5,,328
2013-1-20,41,34,28,30,28,25,93,86,65,30.38,30.33,30.26,10,6,1,9,2,,0.00,6,,80
2013-1-21,33,30,26,27,25,23,93,80,65,30.29,30.22,30.16,10,8,5,8,3,,0.00,2,,143
2013-1-22,39,34,28,27,24,21,80,68,56,30.16,30.05,29.95,10,10,8,13,8,18,0.00,1,,146
2013-1-23,35,34,33,32,27,23,87,72,60,30.21,30.00,29.91,10,8,3,18,9,24,0.06,8,,141
2013-1-24,42,38,35,39,35,32,93,87,81,30.25,30.17,30.10,10,7,3,13,7,18,0.20,8,,138
2013-1-25,50,46,42,45,41,39,93,86,81,30.11,30.03,29.95,10,9,5,10,6,,0.00,7,,142
2013-1-26,46,42,39,39,38,36,93,84,71,30.09,29.99,29.93,10,9,4,13,8,17,0.13,8,,147
2013-1-27,41,39,37,37,37,36,93,89,81,30.14,30.09,30.05,10,8,3,12,6,21,0.19,8,,143
2013-1-28,44,42,39,39,38,36,93,88,81,30.19,30.14,30.08,10,9,5,8,3,,0.70,8,,161
2013-1-29,46,44,42,45,42,39,93,88,81,30.46,30.35,30.19,10,7,1,7,2,,0.28,8,,200
2013-1-30,46,45,44,45,43,41,93,90,87,30.45,30.43,30.42,10,7,2,15,8,20,0.35,8,,145
2013-1-31,48,45,42,45,43,41,93,91,82,30.45,30.40,30.34,10,5,0,10,3,,0.04,8,,141